[[{"header":{"parameterUnit":"m.s-1","parameterCategory":1,"la1":30.2991,"la2":30.254,"lo1":-89.0895,"lo2":-89.0444,"dy":0.0017,"dx":0.0017,"nx":28,"ny":28,"refTime":"2023-10-21T21:00:00:Z","depth":0,"parameterNumber":2,"parameterNumberName":"U-component_of_WINDS"},"data":[0,0,0,0,0,0,0,0,0,0,0,0,0,0,0,0,0,0,0,0,0,0,0,0,0,0,0,0,0,0,0,0,0,0,0,0,0,0,0,0,0,0,0,0,0,0,0,0,0,0,0,0,0,0,0,0,0,0,0.5256,0.5257,0,0.5363,0.5364,0.5365,0.5408,0.5408,0.5408,0.5408,0.5517,0.552,0.5523,0,0,0,0,0,0,0,0,0,0,0,0,0,0.5089,0.5092,0.5256,0.5257,0.5259,0.5363,0.5364,0.5365,0.5408,0.5408,0.5408,0.5407,0.5516,0.552,0.5523,0,0,0,0,0,0,0,0,0,0,0,0,0,0.5175,0.5093,0.5256,0.5292,0.5297,0.5362,0.5364,0.5366,0.5408,0.5408,0.5408,0.5407,0.5515,0.5519,0.5524,0.5561,0,0,0.5538,0.554,0,0,0,0,0,0,0,0,0.5171,0.5182,0.5286,0.529,0.5295,0.5372,0.5345,0.5431,0.5408,0.5366,0.5408,0.5407,0.5469,0.5477,0.5498,0.5566,0.557,0.5539,0.5542,0.5544,0.5545,0,0,0,0,0,0,0,0.5165,0.5177,0.5298,0.5287,0.5293,0.5304,0.5316,0.5362,0.5418,0.537,0.5373,0.5385,0.5471,0.5494,0.5501,0.5572,0.5539,0.5543,0.5546,0.5548,0.5676,0.5677,0,0,0,0,0,0,0.5152,0.5172,0.5295,0.5301,0.5231,0.5307,0.532,0.5348,0.5418,0.5428,0.5385,0.5387,0.5486,0.5496,0.5505,0.5553,0.5544,0.5548,0.5551,0.5676,0.5676,0.5677,0,0,0,0,0,0,0.5149,0.5163,0.529,0.5238,0.5255,0.531,0.5341,0.535,0.5372,0.543,0.544,0.5398,0.5486,0.5498,0.5547,0.5558,0.555,0.5554,0.5675,0.5676,0.5677,0.565,0,0,0,0,0,0,0.5144,0.5161,0.5176,0.5238,0.5257,0.533,0.5341,0.5352,0.538,0.5383,0.5444,0.5454,0.5486,0.5539,0.5551,0.5564,0.5558,0.5674,0.5675,0.5676,0.565,0.5649,0.5649,0,0,0,0,0,0.5138,0.5164,0.5176,0.5191,0.5276,0.533,0.5342,0.5379,0.5381,0.5396,0.5433,0.5452,0.5555,0.5544,0.5558,0.5572,0.5674,0.5675,0.5676,0.565,0.5649,0.5649,0,0,0,0,0,0,0.5101,0.5172,0.5187,0.5234,0.5276,0.5337,0.5357,0.5377,0.5419,0.542,0.5465,0.5478,0.5523,0.5552,0.5539,0.5612,0.5616,0.562,0.5591,0.5591,0.5591,0.5583,0.5562,0,0,0,0,0,0.5098,0.5136,0.5197,0.5232,0.5252,0.5301,0.5326,0.5351,0.5396,0.5414,0.5455,0.5498,0.5541,0.5568,0.5609,0.5654,0.5669,0.5671,0.5671,0.567,0.5673,0.57,0.5702,0.5681,0.5681,0.5681,0,0,0.5093,0.5137,0.5158,0.5226,0.5261,0.53,0.5316,0.5356,0.5385,0.542,0.5469,0.55,0.5551,0.5598,0.5621,0.5624,0.5682,0.5672,0.5671,0.5675,0.5702,0.5704,0.5705,0.5682,0.5682,0.5682,0,0,0.5104,0.514,0.5174,0.521,0.5263,0.5296,0.5304,0.5363,0.5386,0.5435,0.5463,0.5498,0.557,0.5605,0.5633,0.5658,0.5677,0.5671,0.5669,0.5695,0.5696,0.5698,0.5707,0.571,0.5673,0.5673,0.5673,0,0.509,0.5149,0.5189,0.5228,0.5257,0.5292,0.5327,0.5359,0.5423,0.5443,0.5446,0.5537,0.5574,0.563,0.5637,0.5657,0.5669,0.5664,0.5693,0.5695,0.5697,0.5707,0.571,0.5672,0.5672,0.5672,0.5673,0,0.5131,0.5171,0.5192,0.5254,0.5286,0.5323,0.5368,0.5395,0.5418,0.545,0.55,0.5546,0.5598,0.5614,0.5636,0.5673,0.5674,0.5684,0.5689,0.5697,0.5707,0.5711,0.5671,0.5671,0.5671,0.5672,0,0,0.512,0.5205,0.5212,0.5241,0.5303,0.5335,0.5374,0.5425,0.5448,0.5491,0.5525,0.5585,0.5596,0.5627,0.5654,0.5676,0.5694,0.5684,0.5686,0.5685,0.5739,0.5731,0.5734,0.5707,0.5708,0.5709,0.5735,0,0.5139,0.521,0.5247,0.5302,0.534,0.5374,0.5408,0.545,0.5481,0.5519,0.5554,0.5596,0.5606,0.5625,0.5649,0.5687,0.5706,0.5685,0.5739,0.5741,0.5725,0.5739,0.5731,0.5753,0.5739,0.574,0.574,0,0.5171,0.5214,0.5273,0.5332,0.5349,0.5379,0.543,0.5465,0.5513,0.5535,0.557,0.5597,0.5639,0.5641,0.57,0.5686,0.571,0.5732,0.5734,0.574,0.5741,0.5746,0.5761,0.5764,0.5746,0.5746,0.5745,0,0.5158,0.5231,0.5276,0.53,0.5369,0.539,0.5419,0.5468,0.5497,0.5541,0.556,0.5609,0.5635,0.5672,0.5712,0.5709,0.5768,0.5772,0.5787,0.5786,0.5798,0.5796,0.5816,0.5813,0.5813,0.5813,0.5813,0,0.5175,0.521,0.5271,0.5299,0.5339,0.5382,0.542,0.5453,0.5496,0.5531,0.5563,0.5595,0.5645,0.5683,0.5714,0.5759,0.5771,0.579,0.5797,0.5787,0.5784,0.5803,0.5803,0.5814,0.5814,0.5813,0.5813,0,0.5167,0.521,0.5261,0.5323,0.534,0.5366,0.542,0.5448,0.5481,0.5525,0.5538,0.559,0.5637,0.568,0.5743,0.5764,0.5809,0.5819,0.5793,0.5797,0.5809,0.5808,0.5842,0.5849,0.5841,0.5841,0.5841,0,0.5175,0.5203,0.5268,0.5294,0.5323,0.5364,0.5394,0.5438,0.5467,0.5526,0.5547,0.5596,0.5638,0.5712,0.5756,0.5804,0.5815,0.5824,0.5823,0.5811,0.5816,0.5814,0.5817,0.5823,0.5823,0.5823,0.5823,0,0.5186,0.5206,0.5247,0.5297,0.5332,0.5373,0.5415,0.5434,0.5485,0.5517,0.5566,0.5598,0.5662,0.5711,0.5764,0.5796,0.5818,0.5823,0.5829,0.5819,0.5803,0.5812,0.5792,0.5822,0.5822,0.5822,0.5823,0.5823,0.5186,0.5213,0.5263,0.5309,0.5345,0.5384,0.5414,0.5452,0.5493,0.5548,0.5572,0.5621,0.567,0.5744,0.5775,0.5815,0.5819,0.5828,0.583,0.5832,0.583,0.5796,0.5825,0.5825,0.5825,0.5825,0.5825,0,0.5199,0.5233,0.5275,0.5333,0.5369,0.5387,0.5435,0.5464,0.5507,0.5551,0.5592,0.5648,0.5696,0.5744,0.5794,0.5817,0.5829,0.5829,0.5828,0.5835,0.5823,0.5813,0.5818,0.5818,0.5818,0.5818,0.5818,0.5818,0.5209,0.5255,0.5281,0.5346,0.538,0.5429,0.5455,0.5491,0.5526,0.5588,0.5628,0.5659,0.5705,0.5759,0.5804,0.5817,0.5834,0.5831,0.5847,0.5835,0.5835,0.5835,0.5826,0.5835,0.5835,0.5856,0.5856,0.5856]},{"header":{"parameterUnit":"m.s-1","parameterCategory":1,"la1":30.2991,"la2":30.254,"lo1":-89.0895,"lo2":-89.0444,"dy":0.0017,"dx":0.0017,"nx":28,"ny":28,"refTime":"2023-10-21T21:00:00:Z","depth":0,"parameterNumber":3,"parameterNumberName":"V-component_of_WINDS"},"data":[0,0,0,0,0,0,0,0,0,0,0,0,0,0,0,0,0,0,0,0,0,0,0,0,0,0,0,0,0,0,0,0,0,0,0,0,0,0,0,0,0,0,0,0,0,0,0,0,0,0,0,0,0,0,0,0,0,0,2.1382,2.1382,0,2.131,2.131,2.1309,2.127,2.127,2.127,2.127,2.119,2.1188,2.1186,0,0,0,0,0,0,0,0,0,0,0,0,0,2.1482,2.148,2.1382,2.1382,2.1381,2.1311,2.131,2.1309,2.127,2.127,2.127,2.127,2.1191,2.1188,2.1186,0,0,0,0,0,0,0,0,0,0,0,0,0,2.1427,2.1479,2.1383,2.1353,2.135,2.1311,2.131,2.1308,2.127,2.127,2.127,2.127,2.1192,2.1189,2.1186,2.1168,0,0,2.1176,2.1175,0,0,0,0,0,0,0,0,2.143,2.1423,2.1358,2.1355,2.1351,2.1299,2.1315,2.1261,2.127,2.13,2.127,2.127,2.1226,2.122,2.1207,2.1164,2.1161,2.1176,2.1174,2.1172,2.1172,0,0,0,0,0,0,0,2.1434,2.1426,2.1354,2.1358,2.1353,2.1342,2.1334,2.1305,2.1264,2.1298,2.1295,2.1287,2.1224,2.121,2.1204,2.116,2.1176,2.1173,2.1171,2.117,2.11,2.11,0,0,0,0,0,0,2.1443,2.1429,2.1356,2.1352,2.1392,2.134,2.1332,2.1316,2.1265,2.1257,2.1287,2.1286,2.1215,2.1208,2.1201,2.1178,2.1172,2.117,2.1168,2.11,2.11,2.11,0,0,0,0,0,0,2.1445,2.1437,2.1359,2.139,2.1379,2.1339,2.1322,2.1315,2.13,2.1257,2.1249,2.128,2.1215,2.1206,2.1177,2.1175,2.1168,2.1165,2.11,2.11,2.11,2.1131,0,0,0,0,0,0,2.1448,2.1438,2.1432,2.139,2.1378,2.1338,2.1322,2.1313,2.1296,2.1293,2.1248,2.1241,2.1214,2.1182,2.1174,2.117,2.1163,2.11,2.11,2.11,2.113,2.1132,2.1134,0,0,0,0,0,2.1452,2.1442,2.1432,2.1423,2.137,2.1337,2.133,2.1302,2.1296,2.1289,2.1261,2.1242,2.1177,2.1179,2.117,2.1165,2.11,2.11,2.11,2.1129,2.1132,2.1134,0,0,0,0,0,0,2.1482,2.1436,2.1424,2.1401,2.1374,2.1331,2.1321,2.1305,2.1277,2.1275,2.1239,2.1229,2.1204,2.1181,2.1186,2.1146,2.1136,2.1134,2.1162,2.1164,2.1166,2.1171,2.116,0,0,0,0,0,2.1487,2.1467,2.1426,2.1409,2.1397,2.1362,2.1346,2.1327,2.1297,2.1284,2.1254,2.1224,2.1196,2.1179,2.1151,2.1127,2.1116,2.1119,2.1121,2.1123,2.1121,2.1108,2.1108,2.11,2.11,2.11,0,0,2.1495,2.1467,2.1456,2.1415,2.1392,2.137,2.1352,2.1329,2.1313,2.128,2.1252,2.1229,2.1192,2.1166,2.1153,2.1147,2.1122,2.1123,2.1125,2.1122,2.1108,2.1109,2.1109,2.11,2.11,2.11,0,0,2.1498,2.1476,2.146,2.1437,2.1403,2.138,2.1377,2.1337,2.1321,2.1293,2.1268,2.1247,2.12,2.1176,2.1157,2.1153,2.1135,2.1145,2.1155,2.1142,2.1142,2.1143,2.1142,2.1142,2.1144,2.1144,2.1144,0,2.1512,2.1481,2.1453,2.1433,2.1415,2.1387,2.137,2.1349,2.1307,2.1295,2.1289,2.1231,2.1204,2.1172,2.1172,2.1157,2.1151,2.115,2.1145,2.1145,2.1145,2.1143,2.1143,2.1145,2.1145,2.1145,2.1145,0,2.1499,2.1477,2.1468,2.1431,2.1413,2.1394,2.1362,2.1346,2.1329,2.1306,2.1278,2.1245,2.1211,2.1202,2.1183,2.1167,2.1164,2.1152,2.1141,2.1148,2.1146,2.1145,2.1147,2.1147,2.1146,2.1146,0,0,2.1519,2.1468,2.1465,2.1449,2.141,2.1392,2.1371,2.134,2.1328,2.1299,2.1281,2.1243,2.1232,2.1211,2.119,2.1178,2.1178,2.1167,2.1166,2.1171,2.1159,2.1168,2.1168,2.1166,2.1165,2.1165,2.1162,0,2.1517,2.1482,2.1457,2.1431,2.141,2.1384,2.1367,2.134,2.1319,2.1297,2.1272,2.1246,2.1233,2.1221,2.1208,2.1181,2.1175,2.1181,2.1147,2.1146,2.1157,2.1167,2.1177,2.1175,2.1161,2.1161,2.116,0,2.151,2.1486,2.1459,2.1423,2.1414,2.1399,2.1369,2.1348,2.1318,2.1303,2.128,2.1259,2.1235,2.1227,2.1194,2.1198,2.1183,2.1167,2.1166,2.1162,2.1154,2.1163,2.1174,2.1174,2.1159,2.1159,2.1159,0,2.1528,2.1488,2.1467,2.1453,2.1411,2.1401,2.1383,2.1352,2.1336,2.1309,2.1297,2.1267,2.125,2.1227,2.1198,2.1194,2.1167,2.1156,2.1153,2.1154,2.1148,2.1149,2.1157,2.1139,2.1139,2.1139,2.1139,0,2.1528,2.1512,2.1474,2.1461,2.1443,2.1414,2.1396,2.1375,2.1348,2.133,2.1304,2.1287,2.1249,2.1227,2.1204,2.118,2.1172,2.1158,2.1152,2.1161,2.1163,2.115,2.1149,2.1138,2.1138,2.1138,2.1138,0,2.1544,2.1518,2.1494,2.1457,2.1447,2.1436,2.1403,2.1389,2.1367,2.1343,2.1336,2.1301,2.1273,2.1242,2.1203,2.1188,2.1166,2.1157,2.1177,2.1173,2.1172,2.1173,2.1172,2.1171,2.1154,2.1154,2.1154,0,2.1547,2.1534,2.1497,2.1484,2.1468,2.1447,2.143,2.1401,2.1385,2.135,2.134,2.1311,2.1287,2.1244,2.1213,2.1184,2.1174,2.1176,2.1169,2.1179,2.1174,2.1176,2.1174,2.1178,2.1178,2.1178,2.1178,0,2.1553,2.1541,2.152,2.1495,2.1477,2.1454,2.1431,2.1421,2.1387,2.137,2.1343,2.1324,2.1287,2.1258,2.1226,2.1204,2.1186,2.1181,2.1179,2.1187,2.12,2.1193,2.1182,2.1181,2.1181,2.1181,2.118,2.118,2.1562,2.1551,2.1524,2.1501,2.1481,2.146,2.1445,2.1423,2.14,2.1369,2.1353,2.1326,2.1296,2.1251,2.1231,2.1208,2.1202,2.1198,2.1198,2.1197,2.12,2.1204,2.1202,2.1202,2.1202,2.1202,2.1202,0,2.1568,2.155,2.1529,2.1499,2.1481,2.1468,2.1441,2.1426,2.1404,2.1379,2.1356,2.1326,2.1299,2.1267,2.1237,2.1226,2.1216,2.1219,2.1219,2.1215,2.1207,2.1212,2.1227,2.1227,2.1227,2.1227,2.1227,2.1227,2.1569,2.1549,2.1534,2.1504,2.1485,2.1461,2.1447,2.1428,2.1407,2.1375,2.1354,2.1334,2.1306,2.1275,2.1249,2.124,2.123,2.1236,2.1224,2.1217,2.1215,2.1213,2.1218,2.1234,2.1234,2.1234,2.1234,2.1234]}]]